Date String (YYYY-MM-DD hh:mm:ss) UTC,Instrument flags,absolute air pressure of the measurement (hPa),sample flow rate (lpm),inlet stack bypass flow (lpm),air temperature of the measurement (°C),ambient temperature measured by the external sensor (°C),aerosol sample conditioner tube jacket temperature (°C),OPC LED temperature (°C),internal box temperature (°C),relative humidity of the measurement (%),span deviation,mass concentration of particles derived from Lorenz-Mie calculation of OPC scattering (μg/m³),mass concentration of particles derived from Lorenz-Mie calculation of OPC scattering (μg/m³),mass concentration of particles derived from Lorenz-Mie calculation of OPC scattering (μg/m³)
DateTimeUTC,F1_M11,P_M11,Q1_M11,Q2_M11,T1_M11,T2_M11,T3_M11,T4_M11,T5_M11,U1_M11,ZSPAN_M11,X2_M11,X0_M11,X1_M11
2024-04-21 21:00:00,SystemResetWarning,0832.5,5.01,000.00,022.3,021.7,000.0,030.7,024.1,025.4,0000.7,0011.14,0016.47,0010.77
2024-04-21 21:01:00,SystemResetWarning,0832.5,5.00,000.00,022.3,021.7,000.0,030.7,024.1,025.6,0000.7,0011.18,0016.04,0010.79
2024-04-21 21:02:00,SystemResetWarning,0832.5,4.99,000.00,022.3,021.7,000.0,030.7,024.1,025.8,0000.7,0011.18,0015.89,0010.78
2024-04-21 21:03:00,SystemResetWarning,0832.5,5.00,000.00,022.3,021.7,000.0,030.7,024.1,025.6,0000.5,0011.20,0015.99,0010.78
2024-04-21 21:04:00,SystemResetWarning,0832.4,5.00,000.00,022.3,021.7,000.0,030.7,024.1,024.8,0000.4,0011.24,0016.08,0010.81
2024-04-21 21:05:00,SystemResetWarning,0832.4,5.01,000.00,022.3,021.7,000.0,030.7,024.1,025.5,0000.4,0011.26,0016.13,0010.82
2024-04-21 21:06:00,SystemResetWarning,0832.4,5.00,000.00,022.3,021.7,000.0,030.7,024.1,026.0,0000.2,0011.30,0016.54,0010.85
2024-04-21 21:07:00,SystemResetWarning,0832.4,5.00,000.00,022.3,021.7,000.0,030.7,024.1,024.9,0000.3,0011.27,0016.27,0010.84
2024-04-21 21:08:00,SystemResetWarning,0832.3,5.00,000.00,022.3,021.7,000.0,030.7,024.1,025.1,0000.4,0011.28,0016.28,0010.84
2024-04-21 21:09:00,SystemResetWarning,0832.3,5.00,000.00,022.3,021.7,000.0,030.7,024.1,025.0,0000.5,0011.29,0016.29,0010.86
2024-04-21 21:10:00,SystemResetWarning,0832.3,5.00,000.00,022.3,021.7,000.0,030.7,024.1,025.6,0000.7,0011.31,0016.27,0010.89
2024-04-21 21:11:00,SystemResetWarning,0832.2,4.99,000.00,022.3,021.7,000.0,030.7,024.1,025.3,0000.7,0011.30,0016.25,0010.89
2024-04-21 21:12:00,SystemResetWarning,0832.2,4.99,000.00,022.3,021.7,000.0,030.7,024.1,024.7,0000.8,0011.23,0016.31,0010.83
2024-04-21 21:13:00,SystemResetWarning,0832.2,5.00,000.00,022.3,021.7,000.0,030.7,024.1,025.2,0000.9,0011.19,0016.29,0010.82
2024-04-21 21:14:00,SystemResetWarning,0832.2,5.00,000.00,022.4,021.7,000.0,030.7,024.1,025.2,0001.0,0011.16,0016.22,0010.80
2024-04-21 21:15:00,SystemResetWarning,0832.2,5.00,000.00,022.4,021.7,000.0,030.7,024.1,025.1,0001.0,0011.16,0016.25,0010.79
2024-04-21 21:16:00,SystemResetWarning,0832.2,5.00,000.00,022.4,021.7,000.0,030.7,024.1,025.1,0000.9,0011.11,0016.26,0010.75
2024-04-21 21:17:00,SystemResetWarning,0832.2,5.00,000.00,022.4,021.7,000.0,030.8,024.1,025.5,0001.0,0011.08,0015.85,0010.73
2024-04-21 21:18:00,SystemResetWarning,0832.2,5.00,000.00,022.4,021.8,000.0,030.8,024.2,026.1,0001.1,0011.09,0015.29,0010.75
2024-04-21 21:19:00,SystemResetWarning,0832.1,5.00,000.00,022.4,021.8,000.0,030.8,024.2,025.3,0000.9,0011.12,0015.35,0010.78
2024-04-21 21:20:00,SystemResetWarning,0832.1,5.00,000.00,022.4,021.8,000.0,030.8,024.2,025.0,0000.9,0011.12,0015.38,0010.77
2024-04-21 21:21:00,SystemResetWarning,0832.0,5.00,000.00,022.4,021.8,000.0,030.8,024.2,026.0,0000.6,0011.13,0015.44,0010.74
2024-04-21 21:22:00,SystemResetWarning,0832.1,4.99,000.00,022.4,021.8,000.0,030.8,024.2,025.7,0000.7,0011.08,0015.78,0010.70
2024-04-21 21:23:00,SystemResetWarning,0832.0,5.00,000.00,022.4,021.8,000.0,030.8,024.2,025.0,0000.6,0011.09,0015.76,0010.71
2024-04-21 21:24:00,SystemResetWarning,0832.0,5.01,000.00,022.4,021.8,000.0,030.8,024.2,025.0,0000.7,0011.08,0015.63,0010.71
2024-04-21 21:25:00,SystemResetWarning,0832.0,5.00,000.00,022.5,021.8,000.0,030.8,024.2,025.4,0000.6,0011.09,0015.62,0010.71
2024-04-21 21:26:00,SystemResetWarning,0832.0,5.01,000.00,022.5,021.8,000.0,030.8,024.2,025.1,0000.6,0011.08,0015.58,0010.70
2024-04-21 21:27:00,SystemResetWarning,0831.9,5.00,000.00,022.5,021.9,000.0,030.8,024.2,025.3,0000.6,0011.06,0015.54,0010.68
2024-04-21 21:28:00,SystemResetWarning,0831.9,5.00,000.00,022.5,021.9,000.0,030.8,024.3,024.8,0000.6,0011.03,0015.57,0010.64
2024-04-21 21:29:00,SystemResetWarning,0831.9,5.00,000.00,022.5,021.9,000.0,030.8,024.3,024.6,0000.6,0010.97,0015.88,0010.58
2024-04-21 21:30:00,SystemResetWarning,0831.9,5.00,000.00,022.5,021.9,000.0,030.8,024.3,025.3,0000.6,0010.91,0015.94,0010.51
2024-04-21 21:31:00,SystemResetWarning,0831.9,5.00,000.00,022.5,021.9,000.0,030.8,024.3,024.9,0000.4,0010.81,0015.86,0010.43
2024-04-21 21:32:00,SystemResetWarning,0831.9,5.00,000.00,022.5,021.9,000.0,030.9,024.3,025.8,0000.6,0010.74,0015.78,0010.37
2024-04-21 21:33:00,SystemResetWarning,0831.9,5.00,000.00,022.5,021.9,000.0,030.9,024.3,026.0,0000.5,0010.72,0016.34,0010.34
2024-04-21 21:34:00,SystemResetWarning,0831.8,5.00,000.00,022.6,021.9,000.0,030.9,024.3,026.0,0000.5,0010.70,0015.88,0010.34
2024-04-21 21:35:00,SystemResetWarning,0831.9,5.00,000.00,022.6,021.9,000.0,030.9,024.4,025.9,0000.6,0010.71,0015.91,0010.35
2024-04-21 21:36:00,SystemResetWarning,0832.0,4.99,000.00,022.6,022.0,000.0,030.9,024.4,026.0,0000.5,0010.72,0016.03,0010.37
2024-04-21 21:37:00,SystemResetWarning,0831.7,5.00,000.00,022.6,022.0,000.0,030.9,024.4,026.3,0000.6,0010.69,0016.10,0010.35
2024-04-21 21:38:00,SystemResetWarning,0831.6,5.00,000.00,022.6,022.0,000.0,030.9,024.4,024.8,0000.7,0010.64,0016.02,0010.33
2024-04-21 21:39:00,SystemResetWarning,0831.7,5.00,000.00,022.6,022.0,000.0,030.9,024.4,024.4,0000.7,0010.63,0016.45,0010.30
2024-04-21 21:40:00,SystemResetWarning,0831.7,5.00,000.00,022.6,022.0,000.0,031.0,024.4,024.3,0000.8,0010.62,0016.24,0010.28
2024-04-21 21:41:00,SystemResetWarning,0831.6,5.00,000.00,022.6,022.0,000.0,031.0,024.4,024.2,0000.9,0010.61,0016.14,0010.26
2024-04-21 21:42:00,SystemResetWarning,0831.6,5.00,000.00,022.6,022.1,000.0,031.0,024.4,024.1,0001.0,0010.61,0016.55,0010.26
2024-04-21 21:43:00,SystemResetWarning,0831.7,5.00,000.00,022.7,022.1,000.0,031.0,024.4,024.6,0001.0,0010.58,0016.65,0010.23
2024-04-21 21:44:00,SystemResetWarning,0831.6,5.00,000.00,022.7,022.1,000.0,031.0,024.5,024.6,0001.0,0010.54,0015.85,0010.18
2024-04-21 21:45:00,SystemResetWarning,0831.6,4.98,000.00,022.7,022.1,000.0,031.0,024.5,025.2,0001.0,0010.55,0016.13,0010.15
2024-04-21 21:46:00,SystemResetWarning,0831.6,4.99,000.00,022.7,022.1,000.0,031.0,024.5,024.0,0000.8,0010.48,0016.09,0010.07
2024-04-21 21:47:00,SystemResetWarning,0831.5,5.01,000.00,022.7,022.1,000.0,031.0,024.5,023.8,0000.8,0010.36,0015.96,0009.97
2024-04-21 21:48:00,SystemResetWarning,0831.4,5.00,000.00,022.7,022.1,000.0,031.0,024.5,023.8,0000.8,0010.26,0016.63,0009.84
2024-04-21 21:49:00,SystemResetWarning,0831.4,5.00,000.00,022.7,022.1,000.0,031.0,024.5,024.3,0000.7,0010.17,0016.51,0009.74
2024-04-21 21:50:00,SystemResetWarning,0831.5,5.00,000.00,022.7,022.1,000.0,031.1,024.5,023.9,0000.6,0010.12,0016.42,0009.71
2024-04-21 21:51:00,SystemResetWarning,0831.4,5.00,000.00,022.7,022.1,000.0,031.1,024.5,024.9,0000.6,0010.08,0016.29,0009.67
2024-04-21 21:52:00,SystemResetWarning,0831.5,5.00,000.00,022.7,022.1,000.0,031.1,024.5,025.0,0000.5,0010.04,0016.24,0009.63
2024-04-21 21:53:00,SystemResetWarning,0831.4,5.00,000.00,022.7,022.1,000.0,031.1,024.5,025.2,0000.6,0010.02,0015.77,0009.61
2024-04-21 21:54:00,SystemResetWarning,0831.4,5.00,000.00,022.8,022.1,000.0,031.1,024.6,024.2,0000.3,0009.98,0015.60,0009.56
2024-04-21 21:55:00,SystemResetWarning,0831.4,5.00,000.00,022.8,022.2,000.0,031.1,024.6,024.0,0000.4,0009.92,0016.07,0009.52
2024-04-21 21:56:00,SystemResetWarning,0831.4,5.00,000.00,022.8,022.2,000.0,031.1,024.6,023.6,0000.4,0009.76,0015.62,0009.38
2024-04-21 21:57:00,SystemResetWarning,0831.4,5.00,000.00,022.8,022.2,000.0,031.1,024.6,023.5,0000.6,0009.66,0015.45,0009.28
2024-04-21 21:58:00,SystemResetWarning,0831.4,5.00,000.00,022.8,022.2,000.0,031.1,024.6,024.1,0000.8,0009.63,0015.69,0009.22
2024-04-21 21:59:00,SystemResetWarning,0831.3,5.00,000.00,022.8,022.2,000.0,031.1,024.6,023.6,0000.8,0009.63,0014.96,0009.22
